Alexander City, AL

3:47 PM CST on January 17, 2017 (GMT -0600)
Russell

Weather History for KALX - February, 2014

Change the Weather History Date:

Monday, February 17, 2014

  Actual Average (KAUO) Record (KAUO)
Temperature  
Mean Temperature 52 °F -  
Max Temperature 68 °F 60 °F 80 °F (1961)
Min Temperature 35 °F 36 °F 8 °F (1958)
Degree Days  
Heating Degree Days 14    
Growing Degree Days 2 (Base 50)    
Moisture  
Dew Point 44 °F    
Average Humidity 72    
Maximum Humidity 85    
Minimum Humidity 60    
Precipitation  
Precipitation 0.01 in - - ()
Sea Level Pressure  
Sea Level Pressure 30.15 in    
Wind  
Wind Speed 1 mph (SSE)    
Max Wind Speed 9 mph    
Max Gust Speed -    
Visibility 10 miles    
Events      
Averages and records for this station are not official NWS values.
T = Trace of Precipitation, MM = Missing Value Source: NWS Daily Summary

Daily Weather History Graph

Daily Weather History Graph

Search for Another Location

Airport or City:

Trip Planner

Search our weather history database for the weather conditions in past years. The results will help you decide how hot, cold, wet, or windy it might be!

Date:

Astronomy

Feb. 17, 2014 Rise Set
Actual Time 6:25 AM CST 5:31 PM CST
Civil Twilight 6:00 AM CST 5:56 PM CST
Nautical Twilight 5:31 AM CST 6:25 PM CST
Astronomical Twilight 5:02 AM CST 6:53 PM CST
Moon 8:13 PM CST 7:35 AM CST
Length of Visible Light 11h 56m
Length of Day
11h 05m
Waning Gibbous, 93% of the Moon is Illuminated
Feb 17
Waning Gibbous
Feb 22
Last Quarter
Mar 1
New
Mar 8
First Quarter
Mar 16
Full

Hourly Weather History & Observations

Time (CST) Temp. Windchill Dew Point Humidity Pressure Visibility Wind Dir Wind Speed Gust Speed Precip Events Conditions
12:15 AM 43.3 °F - 36.0 °F 75% 30.14 in 10.0 mi Calm Calm - N/A   Clear
12:35 AM 40.1 °F - 34.7 °F 81% 30.14 in 10.0 mi Calm Calm - N/A   Clear
12:55 AM 40.1 °F - 34.7 °F 81% 30.15 in 10.0 mi Calm Calm - N/A   Clear
1:15 AM 40.1 °F - 35.1 °F 82% 30.14 in 10.0 mi Calm Calm - N/A   Clear
1:35 AM 39.9 °F - 34.5 °F 81% 30.14 in 10.0 mi Calm Calm - N/A   Clear
1:55 AM 40.1 °F - 35.1 °F 82% 30.14 in 10.0 mi Calm Calm - N/A   Clear
2:15 AM 40.1 °F - 35.6 °F 84% 30.14 in 10.0 mi Calm Calm - N/A   Clear
2:35 AM 37.6 °F - 32.9 °F 83% 30.16 in 10.0 mi Calm Calm - N/A   Clear
2:55 AM 37.9 °F - 33.6 °F 84% 30.16 in 10.0 mi Calm Calm - N/A   Clear
3:15 AM 37.6 °F - 32.9 °F 83% 30.16 in 10.0 mi Calm Calm - N/A   Clear
3:35 AM 38.1 °F - 33.8 °F 84% 30.16 in 10.0 mi Calm Calm - N/A   Clear
3:55 AM 40.1 °F - 35.6 °F 84% 30.15 in 10.0 mi Calm Calm - N/A   Clear
4:15 AM 40.1 °F 38.0 °F 35.1 °F 82% 30.16 in 10.0 mi North 3.5 mph - N/A   Clear
4:35 AM 39.4 °F - 33.1 °F 78% 30.18 in 10.0 mi Calm Calm - N/A   Clear
4:55 AM 37.6 °F - 33.1 °F 84% 30.18 in 10.0 mi Calm Calm - N/A   Clear
5:15 AM 37.8 °F - 32.4 °F 81% 30.18 in 10.0 mi Calm Calm - N/A   Clear
5:35 AM 39.2 °F - 34.0 °F 82% 30.17 in 10.0 mi Calm Calm - N/A   Clear
5:55 AM 37.6 °F - 32.5 °F 82% 30.18 in 10.0 mi Calm Calm - N/A   Clear
6:15 AM 35.1 °F - 30.6 °F 84% 30.19 in 10.0 mi Calm Calm - N/A   Clear
6:35 AM 35.1 °F - 31.1 °F 85% 30.17 in 10.0 mi Calm Calm - N/A   Clear
6:55 AM 35.1 °F - 31.1 °F 85% 30.19 in 10.0 mi Calm Calm - N/A   Clear
7:15 AM 37.4 °F - 33.1 °F 84% 30.19 in 10.0 mi Calm Calm - N/A   Clear
7:35 AM 37.6 °F - 32.9 °F 83% 30.19 in 10.0 mi Calm Calm - N/A   Clear
7:55 AM 42.6 °F - 37.2 °F 81% 30.20 in 10.0 mi Calm Calm - N/A   Mostly Cloudy
8:15 AM 45.1 °F - 37.2 °F 74% 30.20 in 10.0 mi Calm Calm - N/A   Overcast
8:35 AM 47.7 °F - 37.6 °F 68% 30.21 in 10.0 mi Calm Calm - N/A   Overcast
8:55 AM 50.2 °F - 39.6 °F 67% 30.22 in 10.0 mi Calm Calm - N/A   Overcast
9:15 AM 50.2 °F - 38.7 °F 65% 30.21 in 10.0 mi Calm Calm - N/A   Overcast
9:35 AM 52.3 °F - 40.3 °F 64% 30.20 in 10.0 mi Calm Calm - N/A   Overcast
9:55 AM 55.4 °F - 43.7 °F 65% 30.20 in 10.0 mi Calm Calm - N/A   Overcast
10:15 AM 55.4 °F - 43.9 °F 65% 30.21 in 10.0 mi Calm Calm - N/A   Overcast
10:35 AM 57.7 °F - 49.3 °F 73% 30.20 in 5.0 mi Calm Calm - N/A   Haze
10:55 AM 57.7 °F - 48.2 °F 70% 30.19 in 7.0 mi ESE 5.8 mph - N/A   Mostly Cloudy
11:15 AM 57.7 °F - 47.5 °F 69% 30.19 in 10.0 mi ESE 3.5 mph - N/A   Mostly Cloudy
11:35 AM 57.7 °F - 47.3 °F 68% 30.19 in 10.0 mi Calm Calm - N/A   Overcast
11:55 AM 57.7 °F - 46.9 °F 67% 30.18 in 10.0 mi Calm Calm - N/A   Overcast
12:15 PM 60.3 °F - 48.4 °F 65% 30.16 in 10.0 mi SE 4.6 mph - N/A   Mostly Cloudy
12:35 PM 60.3 °F - 47.7 °F 63% 30.16 in 10.0 mi SSE 3.5 mph - N/A   Mostly Cloudy
12:55 PM 61.0 °F - 48.2 °F 63% 30.14 in 10.0 mi South 4.6 mph - N/A   Mostly Cloudy
1:15 PM 61.7 °F - 49.3 °F 64% 30.12 in 10.0 mi South 4.6 mph - N/A   Mostly Cloudy
1:35 PM 62.8 °F - 50.4 °F 64% 30.11 in 10.0 mi SE 4.6 mph - N/A   Mostly Cloudy
1:55 PM 67.3 °F - 52.9 °F 60% 30.11 in 10.0 mi SSW 6.9 mph - N/A   Mostly Cloudy
2:15 PM 68.0 °F - 53.4 °F 60% 30.11 in 10.0 mi SSW 9.2 mph - N/A   Mostly Cloudy
2:35 PM 68.0 °F - 53.4 °F 60% 30.10 in 10.0 mi South 6.9 mph - N/A   Mostly Cloudy
2:55 PM 68.0 °F - 53.4 °F 60% 30.10 in 10.0 mi South 4.6 mph - N/A   Mostly Cloudy
3:15 PM 68.0 °F - 53.6 °F 60% 30.09 in 10.0 mi SE 4.6 mph - N/A   Mostly Cloudy
3:35 PM 68.0 °F - 54.1 °F 61% 30.09 in 10.0 mi Calm Calm - N/A   Mostly Cloudy
3:55 PM 68.0 °F - 53.6 °F 60% 30.09 in 10.0 mi South 5.8 mph - N/A   Mostly Cloudy
4:15 PM 68.0 °F - 54.0 °F 61% 30.09 in 10.0 mi South 3.5 mph - N/A   Mostly Cloudy
4:35 PM 68.0 °F - 53.6 °F 60% 30.09 in 10.0 mi South 3.5 mph - N/A   Overcast
4:55 PM 68.0 °F - 53.6 °F 60% 30.09 in 10.0 mi South 3.5 mph - N/A   Overcast
5:15 PM 65.5 °F - 51.1 °F 60% 30.09 in 10.0 mi Calm Calm - N/A   Overcast
5:35 PM 65.5 °F - 52.0 °F 62% 30.11 in 10.0 mi Calm Calm - N/A   Mostly Cloudy
5:55 PM 65.5 °F - 51.8 °F 61% 30.11 in 10.0 mi Calm Calm - N/A   Mostly Cloudy
6:15 PM 65.5 °F - 52.2 °F 62% 30.11 in 10.0 mi Calm Calm - N/A   Mostly Cloudy
6:35 PM 63.7 °F - 50.9 °F 63% 30.12 in 10.0 mi Calm Calm - N/A   Mostly Cloudy
6:55 PM 63.3 °F - 50.9 °F 64% 30.11 in 10.0 mi Calm Calm - N/A   Mostly Cloudy
7:15 PM 63.1 °F - 50.9 °F 64% 30.11 in 10.0 mi Calm Calm - N/A   Mostly Cloudy
7:35 PM 63.0 °F - 51.1 °F 65% 30.11 in 10.0 mi Calm Calm - N/A   Overcast
7:55 PM 61.7 °F - 51.4 °F 69% 30.12 in 10.0 mi Calm Calm - N/A   Mostly Cloudy
8:15 PM 62.8 °F - 51.4 °F 66% 30.12 in 10.0 mi Calm Calm - N/A   Mostly Cloudy
8:35 PM 62.4 °F - 51.6 °F 68% 30.13 in 10.0 mi Calm Calm - N/A   Mostly Cloudy
8:55 PM 61.7 °F - 52.0 °F 70% 30.13 in 10.0 mi Calm Calm - N/A   Overcast
9:15 PM 60.3 °F - 52.3 °F 75% 30.13 in 10.0 mi Calm Calm - N/A   Overcast
9:35 PM 61.2 °F - 51.8 °F 71% 30.13 in 10.0 mi Calm Calm - N/A   Overcast
9:55 PM 60.4 °F - 52.0 °F 74% 30.13 in 10.0 mi Calm Calm - N/A   Mostly Cloudy
10:15 PM 62.8 °F - 54.1 °F 73% 30.14 in 10.0 mi SW 3.5 mph - 0.01 in   Overcast
10:35 PM 61.7 °F - 54.0 °F 76% 30.13 in 10.0 mi Calm Calm - 0.01 in   Scattered Clouds
10:55 PM 57.9 °F - 52.9 °F 83% 30.14 in 7.0 mi Calm Calm - 0.01 in   Clear
11:15 PM 57.7 °F - 53.2 °F 85% 30.14 in 4.0 mi Calm Calm - N/A   Haze
11:35 PM 56.7 °F - 52.2 °F 85% 30.13 in 2.5 mi Calm Calm - N/A   Haze
11:55 PM 55.4 °F - 50.9 °F 85% 30.13 in 1.0 mi Calm Calm - N/A   Scattered Clouds